Погода Курган-Тюбе

Погода Курган-Тюбе : погода сейчас, прогноз погоды и архив. Всё, что Вы хотите узнать о погоде Курган-Тюбе!

Поиск расширенной информации на нашем сайте:

Другие новости

Новости СМИ2

Главная страница сайта

Новости сайта

03.07.2017

Напоминаем, что на нашем специализированном сайте Метеоцентр.Азия вы можете получить высокодетализированные автоматические прогнозы погоды по пунктам России, СНГ и мира в авиационном формате (включающие направление и скорость ветра, видимость, явления погоды, количество и форму облачности, нижнюю и верхнюю границу облачности).


Погода Курган-Тюбе - сегодня

Время (UTC), дата Ветер
(°,м/с) 
Видим.   Явления Облачность Т
(°С)
Тd
(°С)
f(%) Тe
(°С)
Pmin
(гПа)
dP
(гПа)
Po
(мм)
O2
(г/м3)
Тmin Tmax R s Состояние
почвы
03 17.10.17 230 (ЮЗ) 10 км    ясно 
+11.4 +7 74 +13  1012.7  722  278  +10         
06 17.10.17 230 (ЮЗ) 10 км    ясно 
+24.8 +7.1 32 +25  1010  -0.5  722  265  +10         
09 17.10.17 320 (СЗ) 10 км    ясно 
+31 +7.4 23 +31  1007.3  -1.7  720  259           
12 17.10.17 360 (С) 10 км    ясно 
+28.7 +8 27 +29  1006.3  -1.2  719  261           
15 17.10.17 090 (В) н/о    ясно 
+19.4 +7.4 46 +21  1007.6  -0.1  719  269    +33       
18 17.10.17 180 (Ю) н/о    8/0 верхняя 
[Ci sp]
+18.8 +6.4 44 +20  1008.5  0.7  720  270    +33       
21 17.10.17 180 (Ю) н/о  мгла  10/0 верхняя 
[Ci ing]
+18.8 +6.4 44 +19  1012.5  3.8  723  271           
00 18.10.17 180 (Ю) н/о  мгла  10/0 средняя 
[Ac und]
+15.5 +5 50 +15  1018.7  5.4  727  276           
03 18.10.17 180 (Ю) 4000 м  мгла  10/0 средняя 
[Ac und]
+14.5 +4.3 50 +15  1022.5  3.2  729  278  +14.5         
06 18.10.17 140 (ЮВ) 4000 м  мгла  9/9 1500 м 
[Sc]
+16.3 +5.8 50 +17  1024.4  2.1  731  277  +14.5         
09 18.10.17 180 (Ю) 4000 м  мгла  9/0 средняя, верхняя 
[Ac lent|Ci sp]
+17.1 +3.6 41 +18  1022.8  -1.3  730  276           
12 18.10.17 180 (Ю) 10 км    9/8 1500 м средняя 
[Sc|Ac trans]
+17 +4 42 +18  1023.6  0.8  730  276           
15 18.10.17 180 (Ю) н/о    ясно 
+12.1 +3 54 +13  1024.5  730  281    +18.7       
18 18.10.17 050 (СВ) н/о    6/0 верхняя 
[Ci sp]
+10.1 +5.5 73 +10  1025.8  0.9  731  283    +18.7       
21 18.10.17 тихо ()   н/о    9/0 средняя, верхняя 
[Ac trans|Ci sp]
+9.9 +6.7 80 +10  1026.8  732  283           
00 19.10.17 тихо ()   н/о    8/0 верхняя 
[Ci sp]
+8.3 +6.1 86 +8  1028.4  1.1  733  285           
03 19.10.17 360 (С) 4000 м  мгла  ясно 
+9.3 +5.6 78 +10  1028.5  0.3  733  285  +7.8         
06 19.10.17 360 (С) 4000 м  мгла  ясно 
+17 +3.4 40 +18  1028.5  1.3  734  278  +7.8         
09 19.10.17 270 (З) 4000 м  мгла  ясно 
+20 +3.6 34 +20  1026.3  -1.6  733  274           
12 19.10.17 230 (ЮЗ) 4000 м  мгла  ясно 
+19.2 +3.8 36 +21  1024.5  -1.8  731  275           
15 19.10.17 140 (ЮВ) н/о  мгла  ясно 
+13.5 +4.6 55 +15  1025.4  731  280    +20.5       
18 19.10.17 090 (В) н/о    ясно 
+11.3 +6.2 71 +12  1026.2  0.2  731  282    +20.5       
21 19.10.17 050 (СВ) н/о    ясно 
+8.9 +5.8 81 +10  1024.8  -1.6  730  284           
00 20.10.17 360 (С) н/о    ясно 
+8.1 +5 81 +9  1023.9  -1.1  729  285           
03 20.10.17 050 (СВ) 4000 м  мгла  ясно 
+8.3 +5 80 +9  1023.5  -0.4  729  284  +7.2         
Время (UTC), дата Ветер
(°,м/с) 
Видим.   Явления Облачность Т
(°С)
Тd
(°С)
f(%) Тe
(°С)
Pmin
(гПа)
dP
(гПа)
Po
(мм)
O2
(г/м3)
Тmin Tmax R s Состояние
почвы

Для получения пояснительной информации подведите курсор к названию столбца.

ПОГОДА Курган-Тюбе - архив

Всё, что Вы хотите узнать о погоде Курган-Тюбе - удобно и подробно!

Выберите нужную дату (начиная с 1 января 2015* года) и нажмите кнопку "Найти".
Будут отображены архивные сводки погоды по пункту Курган-Тюбе, начиная с указанной даты.


Отображать данные в формате CSV (для использования в таблицах Excel)


Внимание! Наш архив погоды предназначен исключительно для личного некоммерческого использования в познавательных целях. Если Вам необходимы официальные справки о состоянии погоды (для производственных, юридических, коммерческих и т.п. целей), обращайтесь в органы Росгидромета.

*Примечание: данная дата относится к архиву по метеостанциям СССР (Россия, СНГ, Балтия).
Архив по метеостанциям Зарубежной Европы и Азии (кроме Китая) хранится 10 дней, по другим регионам земного шара (Китай, Африка, Америка, Австралия, Океания) - 1 день.

Курган-Тюбе - район местоположения метеостанции


Название, широта, долгота, высота метеостанции:
Курган-Тюбе 37.8°ш. 68.8°д. 429 м над ур. моря [Таджикистан]

Дополнительная информация

В oтличие oт бoльшинства пoгoдных сайтoв мы публикуем пoдрoбную метеoинфoрмацию в детальнoм прoфессиoнальнoм фoрмате.

Характеристики температуры и влажнoсти вoздуха измеряются на высoте 2 м в тени вдали oт зданий и деревьев.
Скoрoсть ветра измеряется на высoте 10 м (на урoвне рoста челoвека скoрoсть ветра ниже в 1.5-2 раза). Если метеoстанция нахoдится в гoрoде или в лесу, тo скoрoсть ветра занижена на 2-4 м/с пo сравнению с oткрытым местoм. Скoрoсть ветра над акватoриями крупных рек и oзёр, а также на вершинах хoлмoв на 2-5 м/с выше, чем в oбычных услoвиях.
Атмoсфернoе давление в разных тoчках местнoсти мoжет значительнo oтличаться oт давления на метеoстанции, в зависимoсти oт услoвий рельефа (при пoдъёме на 10 м давление пoнижается примернo на 1 мм рт.ст.).